Location: Bothwell
(42.3833°S, 147.0000°E)
Time: 00:12:00
(UTC+10:00)

Max Valier Satellite - Visible Passes

Search period start: 01 October 2022 23:00
Search period end: 12 October 2022 00:00
Orbit: 474 x 486 km, 97.2° (Epoch: 01 October)

Date Brightness Start Highest point End Pass type
(mag) Time Alt. Az. Time Alt. Az. Time Alt. Az.
02 Oct ? 22:16:45 10° S 22:17:36 15° SSW 22:17:36 15° SSW visible
03 Oct ? 21:50:46 10° S 21:51:48 18° S 21:51:48 18° S visible
04 Oct ? 21:25:05 10° SSE 21:25:59 17° SSE 21:25:59 17° SSE visible
05 Oct ? 20:59:45 10° SE 21:00:09 12° SE 21:00:09 12° SE visible
05 Oct ? 22:33:16 10° SSW 22:34:25 16° SW 22:34:25 16° SW visible
06 Oct ? 22:06:57 10° S 22:08:33 23° SSW 22:08:33 23° SSW visible
07 Oct ? 21:41:00 10° SSE 21:42:40 26° SSE 21:42:40 26° SSE visible
08 Oct ? 21:15:21 10° SSE 21:16:45 20° SE 21:16:45 20° SE visible
08 Oct ? 22:49:55 10° SW 22:51:01 13° SW 22:51:01 13° SW visible
09 Oct ? 20:50:09 10° SE 20:50:49 13° SE 20:50:49 13° SE visible
09 Oct ? 22:23:05 10° SSW 22:25:05 22° SW 22:25:05 22° SW visible
10 Oct ? 21:56:51 10° S 21:59:08 34° SSW 21:59:08 34° SSW visible
11 Oct ? 21:30:56 10° SSE 21:33:09 34° SSE 21:33:09 34° SSE visible
